Location: Oberwangen
(47.4286°N, 8.9679°E)
Time: 23:40:40
(UTC+00:00)

ATLAS CENTAUR R/B - Pass Details

Date: 20 June 2021
Orbit: 472 x 671 km, 64.6° (Epoch: 13 June)

Event Time Altitude Azimuth Distance (km) Brightness Sun altitude
Rises 20:07:14 0° 324° (NW) 2,772 7.2 -6.2°
Reaches altitude 10° 20:09:26 10° 329° (NNW) 1,905 5.7 -6.5°
Maximum altitude 20:13:42 58° 48° (NE) 712 1.9 -7.0°
Drops below altitude 10° 20:18:12 10° 129° (SE) 2,012 3.5 -7.5°
Enters shadow 20:18:22 - 129° (SE) 2,076 3.6 -7.5°
